Location: Dealu Mare
(46.0500°N, 22.8167°E)
Time: 20:27:11
(UTC+00:00)

Meteor 2-19 Rocket - Pass Details

Date: 15 January 2026
Orbit: 935 x 959 km, 82.5° (Epoch: 10 February)

Event Time Altitude Azimuth Distance (km) Brightness Sun altitude
Rises 05:06:25 0° 349° (NNW) 3,613 7.2 -10.3°
Reaches altitude 10° 05:08:55 10° 347° (NNW) 2,662 6.5 -9.9°
Maximum altitude 05:14:58 73° 265° (W) 979 4.4 -9.0°
Drops below altitude 10° 05:20:58 10° 181° (S) 2,638 7.1 -8.0°
Sets 05:23:26 0° 180° (S) 3,577 7.8 -7.6°
